Regional Weather Roundup
Issued by NWS

Home | Current Version | Previous Version | Graphics & Text | Print | Product List | Glossary On
Versions: 1 2 3 4 5 6 7 8 9 10 11 12 13 14 15 16 17 18 19 20 21 22 23 24 25 26 27 28 29 30 31 32 33 34 35 36 37 38 39 40 41 42 43 44 45 46 47 48 49 50
000
ASUS43 KDMX 271201
RWRIA

WEATHER ROUNDUP FOR IOWA
NATIONAL WEATHER SERVICE DES MOINES IA
700 AM CDT SAT MAY 27 2017

NOTE: "FAIR" INDICATES FEW OR NO CLOUDS BELOW 12,000 FEET WITH NO
SIGNIFICANT WEATHER AND/OR OBSTRUCTIONS TO VISIBILITY.

* - THESE STATIONS ARE NOT NWS STATIONS...THUS NOT UNDER NWS
QUALITY CONTROL.  THEY ALSO DO NOT REPORT WEATHER SUCH
AS PRECIPITATION OR FOG.

IAZ001>003-012>014-020>022-031>034-043>046-271300-
   NORTHWEST IOWA

CITY           SKY/WX    TMP DP  RH WIND       PRES   REMARKS
CARROLL *      CLOUDY    57  50  77 CALM      29.90R
CHEROKEE *     CLOUDY    50  50  97 CALM      29.91R
DENISON *      CLOUDY    54  48  82 NE5       29.92R
LE MARS *      CLOUDY    55  48  76 CALM      29.92R
ORANGE CITY *  PTSUNNY   59  46  63 CALM      29.92R
SHELDON *      PTSUNNY   55  46  71 CALM      29.90S
SIOUX CITY     CLOUDY    56  50  80 W6        29.91R
6HR MIN TEMP:  51; 6HR MAX TEMP:  57;

SPENCER        PTSUNNY   54  50  86 CALM      29.91R
6HR MIN TEMP:  48; 6HR MAX TEMP:  54;

STORM LAKE *   CLOUDY    59  46  63 NE8       29.90S
$$

IAZ055>058-069>071-079>083-090>094-271300-
   SOUTHWEST IOWA

CITY           SKY/WX    TMP DP  RH WIND       PRES   REMARKS
ATLANTIC *     CLOUDY    57  50  77 NE3       29.89R
AUDUBON *      CLOUDY    57  52  82 CALM      29.91R
CLARINDA *     CLOUDY    61  52  72 N6        29.88S
COUNCIL BLFS * CLOUDY    61  46  59 E10       29.87F
CRESTON *      CLOUDY    59  52  77 NE10      29.88S
HARLAN  *      CLOUDY    57  50  77 CALM      29.93R
LAMONI         CLOUDY    61  60  97 NE3       29.87R FOG
6HR MIN TEMP:  59; 6HR MAX TEMP:  67;

RED OAK *      CLOUDY    61  50  67 MISG      29.87S
SHENANDOAH *   CLOUDY    63  50  63 NE6       29.86F
$$

IAZ047>049-059>061-072>074-084-271300-
   CENTRAL IOWA

CITY           SKY/WX    TMP DP  RH WIND       PRES   REMARKS
AMES           FOG       57  57 100 CALM      29.89R VSB<1/4
6HR MIN TEMP:  52; 6HR MAX TEMP:  60;

ANKENY *       FOG       57  57 100 CALM      29.90R VSB<1/4
BOONE *        CLOUDY    61  55  82 CALM      29.88S
CHARITON *     FOG       59  57  94 NE6       29.88R VSB 1/4
DES MOINES     FOG       61  60  97 CALM      29.89R VSB 1/4
6HR MIN TEMP:  60; 6HR MAX TEMP:  67;

GRINNELL*      FOG       54  54  98 CALM      29.91R VSB<1/4
KNOXVILLE *    CLOUDY    59  59 100 E3        29.88S FOG
MARSHALLTOWN   FOG       53  53 100 SE3       29.89R VSB<1/4
6HR MIN TEMP:  51; 6HR MAX TEMP:  59;

NEWTON *       FOG       55  54  94 NE6       29.89R VSB<1/4
PELLA *          N/A     58  58  98 CALM      29.90R FOG
PERRY *          N/A     57  52  83 CALM      29.89R
$$

IAZ004>006-015-016-023>025-035-036-271300-
   NORTH CENTRAL IOWA

CITY           SKY/WX    TMP DP  RH WIND       PRES   REMARKS
ALGONA *       PTSUNNY   55  48  76 CALM      29.90R
CLARION *      MOSUNNY   57  52  82 CALM      29.89S
ESTHERVILLE    CLOUDY    52  49  89 N6        29.89S
6HR MIN TEMP:  48; 6HR MAX TEMP:  55;

FORT DODGE *   CLOUDY    52  48  87 CALM      29.90R
MASON CITY     SUNNY     55  50  83 NW5       29.90S
6HR MIN TEMP:  48; 6HR MAX TEMP:  57;

FOREST CITY *    N/A     54  45  71 N3        29.90R
WEBSTER CITY * MOSUNNY   55  50  82 CALM      29.88R
$$

IAZ007>011-017>019-026>030-037>042-050>054-066-271300-
   NORTHEAST IOWA

CITY           SKY/WX    TMP DP  RH WIND       PRES   REMARKS
CEDAR RAPIDS   FOG       55  55 100 CALM      29.90S VSB 1/16
6HR MIN TEMP:  51; 6HR MAX TEMP:  56;

CHARLES CITY * FOG       54  54 100 SE5       29.89S VSB<1/4
CLINTON *      CLOUDY    56  56 100 CALM      29.93R FOG
DECORAH *      FOG       59  59 100 CALM      29.89R VSB<1/4
DUBUQUE        SUNNY     56  54  93 CALM      29.90F
6HR MIN TEMP:  49; 6HR MAX TEMP:  56;

MONTICELLO *   FOG       52  52 100 CALM      29.91S VSB<1/4
OELWEIN *      FOG       57  57 100 S8        29.90S VSB<1/4
WATERLOO       FOG       57  56  96 S5        29.89R VSB<1/4
6HR MIN TEMP:  50; 6HR MAX TEMP:  57;

$$

IAZ064-065-067-068-078-271300-
   EAST CENTRAL IOWA

CITY           SKY/WX    TMP DP  RH WIND       PRES   REMARKS
DAVENPORT      FOG       57  56  96 N3        29.92S VSB 1
6HR MIN TEMP:  56; 6HR MAX TEMP:  60;

IOWA CITY      FOG       55  54  96 NE3       29.92S VSB 3/4
6HR MIN TEMP:  52; 6HR MAX TEMP:  56;

MT. PLEASANT * DRZL/FOG  55  55 100 NE5       29.90S VSB<1/4
MUSCATINE *    FOG       57  57 100 NE5       29.92S VSB<1/4
QUAD CITIES    FOG       58  56  93 E3        29.91R VSB 1/4
6HR MIN TEMP:  57; 6HR MAX TEMP:  61;

$$

IAZ062-063-075>077-085>089-095>099-271300-
   SOUTHEAST IOWA

CITY           SKY/WX    TMP DP  RH WIND       PRES   REMARKS
BURLINGTON     FOG       58  58 100 NE8       29.89S VSB<1/4
6HR MIN TEMP:  56; 6HR MAX TEMP:  60;

FAIRFIELD *    FOG       55  55 100 NE5       29.89S VSB<1/4
FORT MADISON * RAIN      57  57 100 NE3       29.89S VSB<1/4
KEOKUK *       FOG       57  55  94 NE3       29.87S VSB 3/4
OSKALOOSA *    LGT RAIN  55  55  98 NE3       29.89F VSB<1/4
OTTUMWA        FOG       58  58 100 CALM      29.88S VSB<1/4
6HR MIN TEMP:  54; 6HR MAX TEMP:  61;

WASHINGTON *   CLOUDY    55  55 100 NE6       29.91S VSB<1/4
$$

ABBREVIATIONS USED IN REMARKS
   TC - TEMPERATURES IN CELSIUS
  WCI - WIND CHILL INDEX
   HX - HEAT INDEX
  VSB - VISIBILITY
$$





USA.gov is the U.S. government's official web portal to all federal, state and local government web resources and services.